Overview Statistics Trail Chart Weather Telemetry Raw packets
 

This is the latest recevied weather packets stored in our database for station/object KJ6HT. If no packets are shown the sender has not sent any weather packets the latest 10 day(s).

<< 2 3 4 5 6 7 8 >>
Time Temp. Humidity Pressure Rain* Wind** Luminosity Snow
1788600638 16.67° C 83% 1012.1 hPa 0 mm - - -
1788599771 17.22° C 83% 1012.1 hPa 0 mm - - -
1788598835 17.22° C 83% 1012.2 hPa 0 mm - - -
1788597937 17.78° C 82% 1012.2 hPa 0 mm - - -
1788597032 17.78° C 81% 1012.3 hPa 0 mm - - -
1788596125 18.33° C 79% 1012.5 hPa 0 mm - - -
1788595236 18.33° C 80% 1012.4 hPa 0 mm - - -
1788594324 18.33° C 78% 1012.5 hPa 0 mm - - -
1788593422 18.33° C 79% 1012.4 hPa 0 mm - - -
1788592523 18.89° C 78% 1012.4 hPa 0 mm - - -
1788591618 18.89° C 76% 1012.2 hPa 0 mm - - -
1788590716 19.44° C 75% 1012.1 hPa 0 mm - - -
1788589814 20° C 75% 1012.1 hPa 0 mm - - -
1788588915 19.44° C 73% 1012 hPa 0 mm - - -
1788588024 19.44° C 74% 1011.9 hPa 0 mm - - -
1788587113 20° C 73% 1011.9 hPa 0 mm - - -
1788586212 20.56° C 70% 1011.9 hPa 0 mm - - -
1788585310 21.11° C 69% 1011.9 hPa 0 mm - - -
1788584415 21.11° C 69% 1011.8 hPa 0 mm - - -
1788583509 21.11° C 68% 1011.7 hPa 0 mm - - -
1788582609 21.67° C 66% 1011.5 hPa 0 mm - - -
1788581708 21.67° C 64% 1011.3 hPa 0 mm - - -
1788580808 22.22° C 62% 1011.2 hPa 0 mm - - -
1788579907 22.78° C 61% 1011.1 hPa 0 mm - - -
1788579013 22.78° C 58% 1010.8 hPa 0 mm - - -

* Rain latest hour (hover to see other rain measurements)
** Current wind speed in m/s (hover to see current wind gust speed)